Regional Weather Roundup
Issued by NWS Newport/Morehead, NC

Current Version | Previous Version | Text Only | Print | Product List | Glossary Off
Versions: 1 2 3 4 5 6 7 8 9 10 11 12 13 14 15 16 17 18 19 20 21 22 23 24 25 26 27 28 29 30 31 32 33 34 35 36 37 38 39 40 41 42 43 44 45 46 47 48 49 50
000 ASUS42 KMHX 051713 RWRMHX WEATHER ROUNDUP FOR EASTERN NORTH CAROLINA NATIONAL WEATHER SERVICE NEWPORT/MOREHEAD CITY NC 1200 PM EST MON DEC 05 2016 NOTE: "FAIR" INDICATES FEW OR NO CLOUDS BELOW 12,000 FEET WITH NO SIGNIFICANT WEATHER AND/OR OBSTRUCTIONS TO VISIBILITY NCZ015>017-031-032-045>047-102-103-051800- NORTH COAST CITY SKY/WX TMP DP RH WIND PRES REMARKS EDENTON MOSUNNY 56 50 80 N7 29.99F ELIZABETH CITY SUNNY 56 50 80 N8 29.98F KITTY HAWK CLOUDY 53 53 99 N8 29.96S MANTEO CLOUDY 52 51 96 N9 29.97F $$ NCZ045>047-081-094-103-104-051800- CENTRAL COAST CITY SKY/WX TMP DP RH WIND PRES REMARKS FRISCO CLOUDY 54 51 90 VRB5 29.97S $$ NCZ095-097-098-100-101-051800- SOUTHERN COAST CITY SKY/WX TMP DP RH WIND PRES REMARKS BEAUFORT CLOUDY 56 50 80 NW7 29.98S CEDAR ISLAND NOT AVBL JACKSONVILLE MOSUNNY 56 50 80 N12 29.97F PINEY ISLAND MOSUNNY N/A N/A N/A N10 29.97F WILMINGTON MOSUNNY 56 51 84 NW12 29.99F $$ NCZ011>013-027>030-043-044-078>080-089-090>093-098-051800- COASTAL PLAIN CITY SKY/WX TMP DP RH WIND PRES REMARKS AHOSKIE PTSUNNY 50 45 84 NW5 30.01F CLINTON SUNNY 55 48 80 NW7 30.02F ELIZABETHTOWN NOT AVBL GOLDSBORO SUNNY 56 50 79 N9 29.99F GREENVILLE MOSUNNY 52 48 87 NW3 30.02F HAVELOCK MOSUNNY 55 49 80 N13 29.99F KENANSVILLE MOSUNNY 54 48 82 N9 30.01F KINSTON SUNNY 55 48 76 NW9 30.01F NEW BERN MOSUNNY 54 48 80 N9 30.00F RICHLANDS SUNNY 56 49 77 N10G16 29.99F ROCKY MOUNT NOT AVBL WASHINGTON SUNNY 55 48 76 NW8 30.00F WHITEVILLE N/A N/A N/A N/A MISG N/A $$ AMZ130-135-150-152-154-156-158-170-250-252-270-ANZ085-086-088-633-658-670-051800- MARINE OBSERVATIONS STATION/POSITION TIME TEMP WIND PRES WAVE SWELL AIR SEA DIR/SP/G HT/PER HT/PER (UTC) (F) (DEG/KT/KT) (MB) (FT/S) (FT/S) CHESAPEAKE LIGHT NOT AVBL 64 E VA BEACH 1650 56 60 360/ 17/ 21 1013.3 5/ 5 2/ 9 DUCK 1648 51 54 360/ 15/ 16 1014.2 2 E DUCK NOT AVBL OREGON INLET 1636 54 56 340/ 11/ 15 1014.3 13E OREGON INLT NOT AVBL HATTERAS CG 1648 53 60 330/ 14/ 17 1014.4 DIAMOND BUOY 1650 57 73 350/ 17/ 23 1013.8 6/ 7 2/ 9 CAPE LOOKOUT 1700 53 330/ 10/ 12 1014.9 BEAUFORT LAB 1648 53 55 350/ 11/ 13 1014.1 30 SE NEW RVR IN 1608 51 71 340/ 14/ 21 1014.7 30 SE NEW RVR IN NOT AVBL 27 SE WRIGHTSVLE 1608 57 68 350/ 16/ 21 1015.5 5 SE WRIGHTSVLE 1608 49 63 350/ 10/ 14 1015.6 225 S CAPE HAT 1650 72 73 190/ 21/ 27 1014.7 6/ 5 2/10 41 SE CHARLESTON 1650 64 74 340/ 14/ 16 1014.7 6/ 7 3/ 7 $$

USA.gov is the U.S. government's official web portal to all federal, state and local government web resources and services.